Weather History for Louisville Bowman, KY

Change the Weather History Date:

Wednesday, January 30, 2013

  Actual Average Record
Temperature  
Mean Temperature 52 °F 35 °F  
Max Temperature 70 °F 43 °F 70 °F (2013)
Min Temperature 33 °F 27 °F -9 °F (1966)
Degree Days  
Heating Degree Days 13 30  
Month to date heating degree days 819 918  
Since 1 July heating degree days 2414 2582  
Cooling Degree Days 0 0  
Month to date cooling degree days 0 0  
Year to date cooling degree days 0 0  
Growing Degree Days 2 (Base 50)    
Moisture  
Dew Point 46 °F    
Average Humidity 78    
Maximum Humidity 93    
Minimum Humidity 62    
Precipitation  
Precipitation 0.87 in 0.10 in 1.11 in (1969)
Month to date precipitation 4.86 3.27  
Year to date precipitation 4.86 3.27  
Sea Level Pressure  
Sea Level Pressure 29.48 in    
Wind  
Wind Speed 15 mph (SW)    
Max Wind Speed 31 mph    
Max Gust Speed 43 mph    
Visibility 8 miles    
Events Rain , Thunderstorm    
T = Trace of Precipitation, MM = Missing Value Source: NWS Daily Summary

Daily Weather History Graph

Daily Weather History Graph

Search for Another Location

Airport:

Trip Planner

Search our weather history database for the weather conditions in past years. The results will help you decide how hot, cold, wet, or windy it might be!

Date:

Astronomy

Jan. 30, 2013 Rise Set
Actual Time 7:49 AM EST 6:03 PM EST
Civil Twilight 7:21 AM EST 6:31 PM EST
Nautical Twilight 6:49 AM EST 7:03 PM EST
Astronomical Twilight 6:18 AM EST 7:34 PM EST
Moon 9:56 PM EST (1/30) 9:20 AM EST (1/30)
Length of Visible Light 11h 10m
Length of Day
10h 14m
Waning Gibbous, 88% of the Moon is Illuminated
Jan 30
Waning Gibbous
Feb 3
Last Quarter
Feb 10
New
Feb 17
First Quarter
Feb 25
Full

Hourly Weather History & Observations

Time (EST) Temp. Windchill Dew Point Humidity Pressure Visibility Wind Dir Wind Speed Gust Speed Precip Events Conditions
12:53 AM 68.0 °F - 57.9 °F 70% 29.54 in 10.0 mi South 16.1 mph 25.3 mph N/A   Overcast
1:53 AM 69.1 °F - 57.9 °F 68% 29.51 in 10.0 mi South 17.3 mph 34.5 mph N/A   Mostly Cloudy
2:53 AM 70.0 °F - 57.9 °F 65% 29.46 in 10.0 mi South 20.7 mph 33.4 mph N/A   Mostly Cloudy
3:53 AM 70.0 °F - 57.9 °F 65% 29.40 in 10.0 mi South 20.7 mph 34.5 mph N/A   Overcast
4:32 AM 69.8 °F - 59.0 °F 68% 29.44 in 2.5 mi SW 24.2 mph 35.7 mph 0.18 in Rain , Thunderstorm Light Rain
4:39 AM 62.6 °F - 59.0 °F 88% 29.45 in 1.0 mi WSW 23.0 mph 42.6 mph 0.29 in Rain , Thunderstorm Heavy Rain
4:42 AM 62.6 °F - 57.2 °F 82% 29.45 in 1.5 mi West 19.6 mph 42.6 mph 0.29 in Rain Rain
4:45 AM 60.8 °F - 57.2 °F 88% 29.46 in 3.0 mi West 17.3 mph 42.6 mph 0.30 in Rain Rain
4:53 AM 59.0 °F - 55.9 °F 90% 29.44 in 7.0 mi West 13.8 mph 23.0 mph 0.31 in Rain Light Rain
5:00 AM 57.2 °F - 55.4 °F 94% 29.45 in 8.0 mi WNW 8.1 mph 18.4 mph 0.01 in Rain Light Rain
5:26 AM 55.4 °F - 53.6 °F 94% 29.50 in 4.0 mi WNW 13.8 mph - 0.11 in Rain Rain
5:53 AM 55.0 °F - 52.0 °F 89% 29.53 in 6.0 mi WNW 11.5 mph 21.9 mph 0.20 in Rain Rain
6:02 AM 53.6 °F - 51.8 °F 94% 29.52 in 6.0 mi Variable 6.9 mph - 0.03 in Rain Rain
6:53 AM 54.0 °F - 52.0 °F 93% 29.50 in 10.0 mi SE 4.6 mph - 0.06 in Rain Light Rain
7:53 AM 54.0 °F - 52.0 °F 93% 29.53 in 5.0 mi SSE 4.6 mph - 0.13 in Rain Light Rain
8:53 AM 54.0 °F - 52.0 °F 93% 29.45 in 10.0 mi ESE 11.5 mph - 0.08 in Rain Light Rain
9:53 AM 55.0 °F - 52.0 °F 89% 29.46 in 10.0 mi SSE 9.2 mph 17.3 mph 0.00 in   Overcast
10:53 AM 55.0 °F - 52.0 °F 89% 29.46 in 10.0 mi South 9.2 mph - N/A   Mostly Cloudy
11:36 AM 55.4 °F - 51.8 °F 88% 29.47 in 10.0 mi South 9.2 mph - N/A   Mostly Cloudy
11:53 AM 55.9 °F - 52.0 °F 87% 29.45 in 10.0 mi South 10.4 mph 19.6 mph N/A   Mostly Cloudy
12:53 PM 57.0 °F - 50.0 °F 77% 29.44 in 10.0 mi SSW 11.5 mph 20.7 mph 0.01 in   Overcast
1:41 PM 57.2 °F - 48.2 °F 72% 29.38 in 10.0 mi SSW 9.2 mph 21.9 mph N/A   Overcast
1:53 PM 57.0 °F - 48.9 °F 74% 29.37 in 10.0 mi South 9.2 mph 20.7 mph N/A   Overcast
2:04 PM 57.2 °F - 48.2 °F 72% 29.38 in 10.0 mi SSW 10.4 mph 16.1 mph N/A   Overcast
2:53 PM 57.0 °F - 48.0 °F 72% 29.37 in 10.0 mi SSW 15.0 mph 21.9 mph N/A   Overcast
3:53 PM 57.0 °F - 46.9 °F 69% 29.37 in 10.0 mi South 13.8 mph 20.7 mph N/A   Overcast
4:53 PM 57.0 °F - 45.0 °F 64% 29.35 in 10.0 mi SSW 11.5 mph 24.2 mph N/A   Mostly Cloudy
5:25 PM 51.8 °F - 44.6 °F 76% 29.39 in 1.8 mi West 24.2 mph 40.3 mph 0.05 in Rain Heavy Rain
5:32 PM 48.2 °F - 44.6 °F 87% 29.40 in 2.0 mi West 23.0 mph 35.7 mph 0.05 in Rain Light Rain
5:36 PM 48.2 °F - 44.6 °F 87% 29.40 in 8.0 mi West 17.3 mph 32.2 mph 0.05 in Rain Light Rain
5:53 PM 46.0 °F 38.0 °F 42.1 °F 86% 29.42 in 6.0 mi WNW 21.9 mph 34.5 mph 0.07 in Rain Light Rain
6:53 PM 43.0 °F 34.8 °F 37.9 °F 82% 29.47 in 10.0 mi WNW 18.4 mph 28.8 mph 0.01 in Rain Light Rain
7:00 PM 41.0 °F 31.4 °F 35.6 °F 81% 29.48 in 10.0 mi WNW 21.9 mph 32.2 mph 0.00 in Rain Light Rain
7:53 PM 39.9 °F 30.2 °F 34.0 °F 79% 29.52 in 10.0 mi WNW 20.7 mph 32.2 mph 0.00 in   Overcast
8:53 PM 37.0 °F 28.1 °F 30.0 °F 76% 29.57 in 10.0 mi West 15.0 mph 31.1 mph N/A   Overcast
9:53 PM 36.0 °F 26.7 °F 26.1 °F 67% 29.63 in 10.0 mi West 15.0 mph 28.8 mph N/A   Overcast
10:53 PM 34.0 °F 21.5 °F 24.1 °F 67% 29.68 in 10.0 mi West 24.2 mph 34.5 mph N/A   Overcast
11:12 PM 33.8 °F 22.8 °F 21.2 °F 60% 29.69 in 10.0 mi WNW 18.4 mph 28.8 mph N/A   Overcast
11:46 PM 33.8 °F 21.3 °F 21.2 °F 60% 29.71 in 10.0 mi West 24.2 mph 39.1 mph N/A   Overcast
11:53 PM 33.1 °F 20.6 °F 21.9 °F 64% 29.72 in 10.0 mi West 23.0 mph 33.4 mph N/A   Overcast